Weather in Adamovka

Russia / Orenburg Oblast     52°04′23″N   54°12′18″E
temp.,
°C
wind,
m/s
gust,
m/s
humid.,
%
clouds,
%
prec.,
mm/h
press.,
hPa
HPBL,
m
3 march, wed
wed323:00−4sw91695100 2.4 1009804
02:00−4sw81496100 1.3 1006707
05:00−3sw71396100 2.6 1005648
08:00−2sw61297100 1.1 1003545
11:00−2sw61097100 2.1 1003536
14:00−1sw6898100 0.6 1003536
17:000wsw5798100 1.9 1003465
20:00−3wnw4996100 0.9 1004268
4 march, thu
thu423:00−5wnw5119496 1.1 1006293
02:00−11wnw499740 0.0 1006149
05:00−11wnw5109763 0.1 1009227
08:00−12w4898100 0.1 1010146
11:00−11wsw599699 0.1 1011264
14:00−8sw7129393 0.0 1010442
17:00−6sw9159492 0.3 1009750
20:00−4sw101695100 0.6 1007917
5 march, fri
fri523:00−2wsw111795100 1.9 1006921
02:00−1wsw101694100 0.5 1007817
05:00−2wsw91593100 0.7 1008751
08:00−4sw91595100 0.1 1008589
11:00−3sw101795100 0.1 1007693
14:00−1sw111796100 1.1 1006932
17:000sw111798100 3.1 1006934
20:00+1sw101798100 1.3 1006864
6 march, sat
sat623:000wsw91498100 2.8 1008718
02:00−3nw5894100 1.3 1011324
05:00−9nnw3395100 1.4 101434
08:00−11ne2393100 0.0 101521
11:00−9ese349199 0.0 1015137
14:00−7se4695100 0.1 1013211
17:00−6e5896100 1.9 1009268
20:00−5ene4796100 3.5 1006224
7 march, sun
sun723:00−7nnw5896100 4.7 1006231
02:00−9nw51096100 0.0 1008256
05:00−11nw61196100 0.1 1010290
08:00−15wnw4896100 0.0 1012143
11:00−14wnw599386 0.0 1014286
14:00−13wnw479242 0.0 1015368
17:00−13w369258 0.0 1016333
20:00−18sw34960 0.0 101634